Tracking 19792 objects as of 16-Jul-2019
HD Live streaming from Space Station
objects crossing your sky now

METEOR 2-17 DEB

Track METEOR 2-17 DEB now!
10-day predictions


NORAD ID: 31397
Int'l Code: 1988-005S
Perigee: 926.1 km
Apogee: 931.5 km
Inclination: 82.5 °
Period: 103.4 minutes
Semi major axis: 7299 km
RCS: 0.0107 m2 (small)
Launch date: January 30, 1988
Source: Commonwealth of Independent States (former USSR) (CIS)
Launch site: PLESETSK MISSILE AND SPACE COMPLEX (PKMTR)

Note: This is SATELLITE DEBRIS
aabbcc
Your satellite tracking list
Your tracking list is empty




NASA's NSSDC Master Catalog

Two Line Element Set (TLE):
1 31397U 88005S   19196.21898328 +.00000139 +00000-0 +97445-4 0  9997
2 31397 082.5411 159.2307 0003742 003.7097 055.2364 13.91996083637353
Source of the keplerian elements: AFSPC